Regional Weather Roundup
Issued by NWS

Home | Current Version | Previous Version | Graphics & Text | Print | Product List | Glossary On
Versions: 1 2 3 4 5 6 7 8 9 10 11 12 13 14 15 16 17 18 19 20 21 22 23 24 25 26 27 28 29 30 31 32 33 34 35 36 37 38 39 40 41 42 43 44 45 46 47 48 49 50
000
ASUS43 KOAX 221610
RWRNE

WEATHER ROUNDUP FOR NEBRASKA
NATIONAL WEATHER SERVICE OMAHA NE
1100 AM CDT FRI MAY 22 2015

NOTES: SATELLITE DATA IS BEING USED TO AUGMENT CLOUD COVER ABOVE
       12000 FEET.
       "FAIR" INDICATES FEW OR NO CLOUDS BELOW 12,000 FEET WITH NO
       SIGNIFICANT WEATHER AND/OR OBSTRUCTIONS TO VISIBILITY.

  * THESE STATIONS DO NOT REPORT WEATHER SUCH AS RAIN...SNOW OR FOG.

NEZ001>004-019>022-054>056-221700-
NEBRASKA PANHANDLE

CITY           SKY/WX    TMP DP  RH WIND       PRES   REMARKS
SCOTTSBLUFF    LGT RAIN  49  32  52 SE18      30.08S
ALLIANCE       LGT RAIN  48  46  93 SE16      30.11S
CHADRON        CLOUDY    56  44  64 S15       30.09F
KIMBALL          N/A    N/A N/A N/A MISG        N/A
SIDNEY         LGT RAIN  48  45  89 SE13      30.09F
$$

NEZ057>060-069>072-079>082-221700-
SOUTHWEST NEBRASKA

CITY           SKY/WX    TMP DP  RH WIND       PRES   REMARKS
NORTH PLATTE   HVY RAIN  48  45  89 SE13G18   30.18S
IMPERIAL       LGT RAIN  49  46  90 E15       30.11F
LEXINGTON      RAIN      50  47  92 SE6       30.20S
MCCOOK         LGT RAIN  48  46  93 SE16G24   30.16S FOG
OGALLALA       LGT RAIN  48  47  95 SE12      30.14F
$$

NEZ005>010-023>029-035>040-094-221700-
NORTH CENTRAL NEBRASKA

CITY           SKY/WX    TMP DP  RH WIND       PRES   REMARKS
VALENTINE      PTSUNNY   61  38  42 SE18G24   30.16F
AINSWORTH      CLOUDY    60  42  53 SE14      30.19R
BROKEN BOW     CLOUDY    53  45  74 S10       30.21R
O`NEILL        PTSUNNY   64  41  44 SE9       30.21S
ORD            CLOUDY    54  45  71 SE7       30.21R
THEDFORD       CLOUDY    55  44  66 SE12      30.19S
$$

NEZ041-046>049-061>064-073>077-083>087-221700-
SOUTH CENTRAL NEBRASKA

CITY           SKY/WX    TMP DP  RH WIND       PRES   REMARKS
GRAND ISLAND   CLOUDY    54  44  69 SE6       30.23S
AURORA         CLOUDY    55  46  71 SE7       30.23S
HASTINGS       CLOUDY    54  45  71 S8        30.21S
HEBRON         CLOUDY    57  46  65 SE7       30.23S
HOLDREGE       LGT RAIN  49  47  91 S12G17    30.20S
KEARNEY *      CLOUDY    50  46  87 S10       30.22R
YORK           CLOUDY    55  48  76 S5        30.24S
$$

NEZ011>018-030>034-042>045-221700-
NORTHEAST NEBRASKA

CITY           SKY/WX    TMP DP  RH WIND       PRES   REMARKS
NORFOLK        CLOUDY    65  41  41 SE8       30.22S
ALBION         CLOUDY    60  43  54 S6        30.23S
BLAIR          PTSUNNY   66  44  45 E3        30.23F
COLUMBUS *     CLOUDY    61  45  55 S3        30.26S
FREMONT        CLOUDY    66  44  44 SE3       30.24S
TEKAMAH        PTSUNNY   68  43  40 CALM      30.22F
WAYNE          PTSUNNY   68  39  34 SE3       30.23S
$$

NEZ050>053-065>068-078-088>093-221700-
SOUTHEAST NEBRASKA

CITY           SKY/WX    TMP DP  RH WIND       PRES   REMARKS
LINCOLN        CLOUDY    59  47  64 S6        30.25S
OMAHA EPPLEY   CLOUDY    66  46  48 CALM      30.24S
BEATRICE       CLOUDY    56  47  71 SE3       30.25S
FALLS CITY       N/A     59  49  69 S6        30.26R
NEBRASKA CITY  CLOUDY    62  46  53 E3        30.25S
PLATTSMOUTH    CLOUDY    64  41  43 CALM      30.24S
$$

NEZ044-045-051>053-067-221700-
OMAHA AREA

CITY           SKY/WX    TMP DP  RH WIND       PRES   REMARKS
OMAHA EPPLEY   CLOUDY    66  46  48 CALM      30.24S
BLAIR          PTSUNNY   66  44  45 E3        30.23F
FREMONT        CLOUDY    66  44  44 SE3       30.24S
MILLARD        CLOUDY    66  45  46 CALM      30.24S
OFFUTT AFB     CLOUDY    64  45  50 CALM      30.23F
PLATTSMOUTH    CLOUDY    64  41  43 CALM      30.24S
WAHOO          FAIR      64  44  47 SE5       30.24S
$$



USA.gov is the U.S. government's official web portal to all federal, state and local government web resources and services.